Location: Eppenbrunn
(49.1158°N, 7.5601°E)
Time: 16:20:09
(UTC+00:00)

IGS 5A - Pass Details

Date: 15 August 2020
Orbit: 583 x 588 km, 97.6° (Epoch: 26 September)

Event Time Altitude Azimuth Distance (km) Brightness Sun altitude
Exits shadow 20:29:45 22° 167° (SSE) 1,317 4.8 -15.2°
Maximum altitude 20:32:27 87° 258° (WSW) 597 3.4 -15.5°
Drops below altitude 10° 20:36:38 10° 346° (NNW) 1,927 7.0 -16.0°
Sets 20:38:49 0° 347° (NNW) 2,833 8.0 -16.2°
